Alexandra Park, Ontario

3:00 PM EST on January 19, 2018 (GMT -0500)
Alexandra Park

Weather History for 71508 - February, 2014

Change the Weather History Date:

Monday, February 17, 2014

  Actual Average Record
Temperature  
Mean Temperature 16 °F -  
Max Temperature 27 °F - - ()
Min Temperature 6 °F - - ()
Degree Days  
Heating Degree Days 48    
Moisture  
Dew Point 5 °F    
Average Humidity 59    
Maximum Humidity 75    
Minimum Humidity 34    
Precipitation  
Precipitation 0.02 in - - ()
Sea Level Pressure  
Sea Level Pressure 30.34 in    
Wind  
Wind Speed - ()    
Max Wind Speed -    
Max Gust Speed -    
T = Trace of Precipitation, MM = Missing Value Source: Averaged Metar Reports

Daily Weather History Graph

Daily Weather History Graph

Search for Another Location

Airport or City:

Trip Planner

Search our weather history database for the weather conditions in past years. The results will help you decide how hot, cold, wet, or windy it might be!

Date:

Astronomy

Feb. 17, 2014 Rise Set
Actual Time 7:13 AM EST 5:50 PM EST
Civil Twilight 6:43 AM EST 6:19 PM EST
Nautical Twilight 6:10 AM EST 6:53 PM EST
Astronomical Twilight 5:37 AM EST 7:26 PM EST
Moon 8:50 PM EST (2/17) 8:06 AM EST (2/17)
Length of Visible Light 11h 36m
Length of Day
10h 37m
Waning Gibbous, 93% of the Moon is Illuminated
Feb 17
Waning Gibbous
Feb 22
Last Quarter
Mar 1
New
Mar 8
First Quarter
Mar 16
Full

Hourly Weather History & Observations

Time (EST) Temp. Dew Point Humidity Pressure Visibility Wind Dir Wind Speed Gust Speed Precip Events Conditions
12:00 AM 10.9 °F -3.1 °F 53% 30.35 in - North - - N/A   Unknown
1:00 AM 11 °F -5 °F 34% 30.39 in - Calm Calm - -  
1:00 AM 10.9 °F -4.5 °F 50% 30.39 in - North - - N/A   Unknown
2:00 AM 10.6 °F -5.1 °F 49% 30.40 in - North - - N/A   Unknown
3:00 AM 8.6 °F -3.1 °F 59% 30.41 in - North - - N/A   Unknown
4:00 AM 7.0 °F -2.2 °F 66% 30.43 in - North - - N/A   Unknown
5:00 AM 9.5 °F -3.8 °F 55% 30.45 in - North - - N/A   Unknown
6:00 AM 7.9 °F -3.5 °F 60% 30.45 in - North - - N/A   Unknown
7:00 AM 8 °F -4 °F 42% 30.47 in - Calm Calm - -  
7:00 AM 8.1 °F -4.2 °F 58% 30.47 in - North - - N/A   Unknown
8:00 AM 8.4 °F -4.5 °F 56% 30.49 in - North - - N/A   Unknown
9:00 AM 11.5 °F -4.4 °F 49% 30.50 in - North - - N/A   Unknown
10:00 AM 16.2 °F -1.5 °F 46% 30.49 in - North - - N/A   Unknown
11:00 AM 18.0 °F 3.9 °F 54% 30.47 in - North - - N/A   Unknown
12:00 PM 19.0 °F 8.6 °F 64% 30.46 in - North - - N/A   Unknown
1:00 PM 20 °F 10 °F 54% 30.41 in - Calm Calm - -  
1:00 PM 20.3 °F 10.4 °F 66% 30.41 in - North - - N/A   Unknown
2:00 PM 20.8 °F 11.1 °F 66% 30.38 in - North - - N/A   Unknown
3:00 PM 20.7 °F 12.6 °F 71% 30.36 in - North - - N/A   Unknown
4:00 PM 21.2 °F 12.9 °F 70% 30.32 in - North - - N/A   Unknown
5:00 PM 21.6 °F 13.3 °F 70% 30.28 in - North - - N/A   Unknown
6:00 PM 22.5 °F 14.7 °F 72% 30.22 in - North - - N/A   Unknown
7:00 PM 24 °F 17 °F 64% 30.16 in - Calm Calm - -  
7:00 PM 23.7 °F 16.9 °F 75% 30.16 in - North - - N/A   Unknown
8:00 PM 25.0 °F 17.1 °F 72% 30.11 in - North - - N/A   Unknown
9:00 PM 26.4 °F 15.3 °F 63% 30.06 in - North - - N/A   Unknown
10:00 PM 27.3 °F 16.2 °F 63% 29.98 in - North - - N/A   Unknown
11:00 PM 27.7 °F 16.5 °F 63% 29.91 in - North - - N/A   Unknown